Location: *
(43.7342°N, 1.6383°E)
Time: 00:28:39
(UTC+00:00)

Daily predictions for brighter satellites

Satellite Brightness Start Highest point End
(mag) Time Altitude Azimuth Time Altitude Azimuth Time Altitude Azimuth
CZ-3B R/B 4.2 03:14:18 37° NNW 03:16:26 49° NNE 03:38:21 10° ESE
MSX 4.5 03:12:12 10° NNE 03:16:25 50° NNE 03:16:25 50° NNE
Meteor 1-21 4.4 03:30:22 67° E 03:30:23 67° E 03:35:57 10° NNE
NOSS 3-2 (A) 3.9 03:31:07 45° SSE 03:32:06 50° ESE 03:38:09 10° NE
Tsikada Rocket 4.0 03:34:30 71° N 03:34:30 71° N 03:39:59 10° N
Cosmos 2344 3.6 03:34:36 43° S 03:37:12 70° ESE 03:44:57 10° NE
ERS-2 4.4 03:34:40 10° ESE 03:37:37 24° ENE 03:39:05 18° NNE
Meteor 2-10 4.3 03:41:03 10° N 03:46:11 65° ENE 03:51:26 10° SSE
Cosmos 44 4.2 03:49:30 43° SSE 03:49:30 43° SSE 03:53:06 10° SSE
Cosmos 1452 Rocket 4.5 03:50:39 36° S 03:50:39 36° S 03:53:41 10° SSE
Lacrosse 4 Rocket 4.3 03:47:05 10° SE 03:49:09 14° ESE 03:51:13 10° ENE
USA 234 4.4 03:45:16 10° NE 03:50:43 29° N 03:52:25 26° NNW
Cosmos 468 4.4 03:56:00 78° SSW 03:56:23 87° WNW 04:01:45 10° NNE
DELTA 2 R/B (1) 3.7 03:57:37 57° SSW 03:57:53 58° S 04:03:23 10° ESE
CZ-2C R/B 2.3 03:57:40 10° NNE 04:02:45 88° ESE 04:04:10 48° SSW
CBERS 1 LM4 rocket 4.5 04:05:33 10° NNE 04:10:34 76° ESE 04:14:59 12° S
Cosmos 2142 Rocket 4.4 04:04:24 10° N 04:10:39 87° E 04:16:57 10° S
PSLV R/B 3.5 04:10:47 10° N 04:14:36 62° NW 04:14:36 62° NW
CZ-2C R/B 3.2 04:16:53 14° SSE 04:16:53 14° SSE 04:17:56 10° SE
Cosmos 1953 2.6 04:12:05 10° N 04:16:05 66° E 04:20:04 10° SSE
GP-B 2.9 04:13:53 10° S 04:18:19 79° W 04:22:46 10° N
Abrixas rocket 3.6 04:23:12 28° NE 04:23:12 28° NE 04:24:57 10° ENE
SJ-6F 4.4 04:19:32 10° NNE 04:23:39 78° ESE 04:27:44 10° S
ADEOS 3.9 04:18:39 10° NNE 04:23:52 66° ESE 04:29:03 10° S
ADEOS Rocket 2.7 04:19:05 10° S 04:24:33 58° W 04:29:59 10° NNW
NOSS 3-2 (C) 3.4 04:24:48 18° SSW 04:29:07 76° ESE 04:35:31 10° NE
IDEFIX/ARIANE 42P 4.4 04:29:39 10° NNW 04:31:08 15° NNW 04:31:08 15° NNW
Cosmos 1544 Rocket 3.7 04:30:16 10° NNW 04:34:35 51° W 04:38:54 10° S
Cosmos 1331 Rocket 3.8 04:32:30 10° NNW 04:37:42 75° WSW 04:42:52 10° SSE
FENGYUN 3A 3.7 04:32:21 10° NNE 04:37:50 82° ESE 04:43:16 10° SSW
Cosmos 1908 3.5 04:36:08 10° N 04:40:02 68° E 04:43:56 10° SSE
CZ-4B R/B 4.2 04:39:16 10° NNE 04:43:37 73° ESE 04:47:44 10° S
Cosmos 1634 Rocket 4.4 04:38:04 10° NNW 04:43:51 38° W 04:49:34 10° SSW
CZ-4B R/B 1.3 04:40:31 10° S 04:43:58 73° WSW 04:47:27 10° NNW
Cosmos 2279 Rocket 3.9 04:38:29 10° NNW 04:44:36 60° W 04:50:39 10° S
ALOS 2.2 04:40:52 10° NNE 04:45:34 84° WNW 04:50:15 10° SSW
KORONAS-FOTON 3.7 04:42:44 10° S 04:46:38 86° W 04:50:35 10° N
COSMO-SKYMED 1 3.1 04:48:47 10° SSE 04:53:03 61° ENE 04:57:21 10° N
Cosmos 1269 Rocket 3.9 04:47:59 10° SSW 04:53:18 83° WNW 04:58:39 10° NNE
SL-19 R/B 3.3 04:52:21 10° NNE 04:55:14 88° W 04:58:02 10° SSW
Cosmos 1025 Rocket 3.5 04:52:56 14° SW 04:56:21 38° WNW 05:00:29 10° N
Cosmos 1484 Rocket 2.8 04:52:43 10° N 04:56:34 58° WNW 05:00:19 10° SSW
Cosmos 1356 Rocket 3.7 04:52:47 10° NNW 04:56:54 46° W 05:00:56 10° SSW
CENTAUR R/B 2.5 04:52:33 11° SW 04:58:14 74° NW 05:05:16 10° NE
Meteor 2-5 Rocket 4.3 04:53:49 10° S 04:59:21 62° E 05:05:02 10° NNE
Lacrosse 5 rocket 3.4 04:57:09 10° S 05:00:04 23° SE 05:03:05 10° ENE
Cosmos 1110 Rocket 4.3 04:55:55 10° NW 05:00:45 41° WSW 05:05:35 10° S
Cosmos 1302 Rocket 4.0 04:58:53 10° NNW 05:04:13 85° WSW 05:09:30 10° SSE
Cosmos 1689 Rocket 2.1 05:02:26 10° SSE 05:05:23 81° ENE 05:08:20 10° N
SJ-12 4.0 05:01:35 10° NNE 05:05:44 83° ESE 05:09:50 10° SSW
Cosmos 2228 3.5 05:03:52 10° N 05:08:12 65° E 05:12:31 10° SSE
Cosmos 1300 3.8 05:07:20 10° N 05:11:04 48° ENE 05:14:45 10° SSE
ERS-2 3.2 05:08:07 10° SSW 05:11:05 23° W 05:13:38 12° NW
Cosmos 2369 4.4 05:07:34 10° NNW 05:13:10 57° ENE 05:18:42 10° SE
Cosmos 1833 Rocket 2.9 05:09:33 10° SSW 05:15:11 79° ESE 05:20:52 10° NNE
USA 238 DEB 4.0 05:10:31 13° WSW 05:16:12 44° NW 05:22:48 10° NNE
USA 238 4.0 05:10:34 13° WSW 05:16:18 45° NW 05:22:54 10° NNE
Meteor 1-16 Rocket 4.5 05:11:50 10° NNW 05:16:44 39° W 05:21:36 10° SSW
SKYMED 3 4.5 05:12:41 10° S 05:17:01 74° WSW 05:21:23 10° NNW
Cosmos 1536 Rocket 4.3 05:13:17 10° SW 05:17:17 32° WNW 05:21:19 10° N
Meteor 1-31 Rocket 3.1 05:15:22 10° N 05:19:06 43° WNW 05:22:50 10° SW
PSLV R/B 3.9 05:15:38 10° S 05:19:48 77° WSW 05:24:02 10° NNW
H-2A R/B 4.0 05:17:36 10° NNE 05:21:15 45° E 05:24:55 10° S
NOSS 3-2 (A) 4.1 05:18:34 13° W 05:23:10 35° NW 05:29:12 10° NNE
Cosmos 2082 Rocket 3.1 05:19:37 10° S 05:25:03 54° ESE 05:30:31 10° NNE
Cosmos 1674 3.7 05:23:45 10° SW 05:27:01 26° WNW 05:30:17 10° NNW
deb Chang Zheng 4 4.2 05:23:21 10° N 05:27:08 32° WNW 05:30:55 10° SW
Lacrosse 4 Rocket 1.4 05:23:22 10° SW 05:27:20 54° WNW 05:31:20 10° NNE
Cosmos 1892 Rocket 3.9 05:26:36 10° S 05:30:53 71° E 05:35:15 10° NNE
COSMOS 2406 3.2 05:25:43 10° SW 05:31:18 62° WNW 05:36:57 10° NNE
Cosmos 1400 Rocket 3.3 05:29:04 10° N 05:33:02 63° ENE 05:36:55 10° SSE
Okean O Rocket 4.1 05:32:12 10° NE 05:35:56 28° E 05:39:39 10° SSE
USA 116 4.3 05:32:52 10° SSE 05:36:31 64° ENE 05:40:42 10° N
CZ-2C R/B 4.2 05:37:53 10° NNW 05:40:11 13° WNW 05:42:27 10° W
ATLAS 3B R/B 2.9 05:33:41 10° SSW 05:40:13 73° ESE 05:46:51 10° NE
ISS -2.2 05:37:29 10° SSW 05:40:37 37° SE 05:43:46 10° ENE
SKYMED 2 4.0 05:37:04 10° SSW 05:41:09 40° W 05:45:16 10° NNW
Aureole 3 3.7 05:37:31 10° N 05:41:13 75° E 05:45:52 10° SSE
DELTA 2 R/B (1) 4.4 05:38:41 10° W 05:43:56 42° SSW 05:49:11 10° SE
Cosmos 1092 Rocket 4.0 05:39:22 10° SSW 05:45:28 66° W 05:51:40 10° N
Cosmos 44 Rocket 3.6 05:42:03 10° NW 05:47:02 53° WSW 05:52:04 10° SSE
CZ-3 R/B 3.7 05:35:44 10° WSW 05:49:54 30° SSW 05:55:18 10° SE
Cosmos 1992 Rocket 4.0 05:44:57 10° NNW 05:50:12 83° WSW 05:55:24 10° SSE
Cosmos 2251 Rocket 3.7 05:45:22 10° SSW 05:50:44 89° ESE 05:56:08 10° NNE
Cosmos 220 Rocket 4.0 05:46:29 10° NNW 05:50:56 76° WSW 05:55:20 10° SSE
Cosmos 2344 4.4 05:45:52 10° W 05:52:26 32° NNW 05:59:49 10° NNE
